Dades meteomassalio
Diari Summary for Nil La, TWC- Units:  English    Metric   Both
« Previous Day
Next Day »
Diari Semanal Mensual Anual Personalitzat
  Maxima: Minima: Mijana:
Temperatura: TemperatureC °F 13.3 °F 14.1 °F
Rosada: DewpointC °F 12.2 °F 13.1 °F
Humitat: Humidity % 93 % 93 %
Velocitat del vent: WindSpeedKMH mph 0.0 mph 0 mph
Racha vent: WindSpeedGustKMH mph - -
Vent:- - North
Pressio: PressurehPa in 1021.0 in -
Pluja: 0.3 in    
Historical Graphs
 
 
Tabular Data for Nil La, TWC-
Time Temperature Dew Point Pressure Wind Wind Speed Wind Gust Humidity Rainfall Rate (Hourly) solar Conditions
TemperatureC °F DewpointC °F PressurehPa in Calm     Humidity % HourlyPrecipMM in SolarRadiationWatts/m^2 W/m2 Conditions
00:04 14.4 °F 13.3 °F 1021.2 in Calm     93 % 4.1 in 0.00 W/m2 RA
00:09 14.4 °F 13.3 °F 1021.1 in Calm     93 % 3.6 in 0.00 W/m2 CLR
00:14 13.9 °F 12.8 °F 1021.3 in Calm     93 % 3.3 in 0.00 W/m2 CLR
00:19 13.9 °F 12.8 °F 1021.2 in Calm     93 % 2.8 in 0.00 W/m2 CLR
00:24 13.9 °F 12.8 °F 1021.2 in Calm     93 % 2.3 in 0.00 W/m2 CLR
00:29 13.9 °F 12.8 °F 1021.3 in Calm     93 % 1.8 in 0.00 W/m2 CLR
00:34 13.9 °F 12.8 °F 1021.3 in Calm     93 % 1.5 in 0.00 W/m2 CLR
00:39 13.9 °F 12.8 °F 1021.2 in Calm     93 % 1.0 in 0.00 W/m2 CLR
00:44 13.9 °F 12.8 °F 1021.2 in Calm     93 % 0.5 in 0.00 W/m2 CLR
00:49 13.9 °F 12.8 °F 1021.0 in Calm     93 % 0.3 in 0.00 W/m2 CLR
00:54 13.9 °F 12.8 °F 1021.1 in Calm     93 % 0.0 in 0.00 W/m2 CLR
00:59 13.9 °F 12.8 °F 1021.1 in Calm     93 % 0.0 in 0.00 W/m2 CLR
01:04 13.9 °F 12.8 °F 1021.1 in Calm     93 % 0.0 in 0.00 W/m2 CLR
01:09 13.9 °F 12.8 °F 1021.2 in Calm     93 % 0.0 in 0.00 W/m2 CLR
01:14 13.9 °F 12.8 °F 1021.2 in Calm     93 % 0.0 in 0.00 W/m2 CLR
01:19 13.9 °F 12.8 °F 1021.3 in Calm     93 % 0.0 in 0.00 W/m2 CLR
01:24 13.9 °F 12.8 °F 1021.3 in Calm     93 % 0.0 in 0.00 W/m2 CLR
01:29 13.9 °F 12.8 °F 1021.4 in Calm     93 % 0.0 in 0.00 W/m2 CLR
01:34 13.9 °F 12.8 °F 1021.4 in Calm     93 % 0.0 in 0.00 W/m2 CLR
01:39 13.9 °F 12.8 °F 1021.4 in Calm     93 % 0.3 in 0.00 W/m2 RA
01:44 13.9 °F 12.8 °F 1021.5 in Calm     93 % 0.3 in 0.00 W/m2
01:49 13.9 °F 12.8 °F 1021.4 in Calm     93 % 0.3 in 0.00 W/m2 CLR
01:54 13.9 °F 12.8 °F 1021.5 in Calm     93 % 0.3 in 0.00 W/m2 CLR
01:59 13.9 °F 12.8 °F 1021.5 in Calm     93 % 0.3 in 0.00 W/m2 CLR
02:04 13.9 °F 12.8 °F 1021.5 in Calm     93 % 0.3 in 0.00 W/m2 CLR
02:09 13.9 °F 12.8 °F 1021.6 in Calm     93 % 0.3 in 0.00 W/m2 CLR
02:14 13.9 °F 12.8 °F 1021.7 in Calm     93 % 0.3 in 0.00 W/m2 CLR
02:19 13.9 °F 12.8 °F 1021.7 in Calm     93 % 0.3 in 0.00 W/m2 CLR
02:24 13.9 °F 12.8 °F 1021.6 in Calm     93 % 0.3 in 0.00 W/m2 CLR
02:29 13.9 °F 12.8 °F 1021.6 in Calm     93 % 0.3 in 0.00 W/m2 CLR
02:34 13.3 °F 12.4 °F 1021.6 in Calm     94 % 0.3 in 0.00 W/m2 CLR
02:39 13.3 °F 12.2 °F 1021.7 in Calm     93 % 0.0 in 0.00 W/m2 CLR
02:44 13.3 °F 12.2 °F 1021.7 in Calm     93 % 0.0 in 0.00 W/m2 CLR
02:49 13.3 °F 12.2 °F 1021.7 in Calm     93 % 0.0 in 0.00 W/m2 CLR
02:54 13.3 °F 12.2 °F 1021.8 in Calm     93 % 0.0 in 0.00 W/m2 CLR
02:59 13.3 °F 12.2 °F 1021.9 in Calm     93 % 0.0 in 0.00 W/m2 CLR
03:04 13.3 °F 12.2 °F 1021.9 in Calm     93 % 0.0 in 0.00 W/m2 CLR
03:09 13.3 °F 12.2 °F 1022.0 in Calm     93 % 0.0 in 0.00 W/m2 CLR
03:14 13.3 °F 12.2 °F 1022.0 in Calm     93 % 0.0 in 0.00 W/m2 CLR
03:19 13.3 °F 12.2 °F 1022.0 in Calm     93 % 0.0 in 0.00 W/m2 CLR
03:24 13.3 °F 12.2 °F 1022.1 in Calm     93 % 0.0 in 0.00 W/m2 CLR
03:29 13.3 °F 12.4 °F 1022.1 in Calm     94 % 0.0 in 0.00 W/m2 CLR
03:34 13.9 °F 12.9 °F 1022.2 in Calm     94 % 0.0 in 0.00 W/m2 CLR
03:39 13.9 °F 12.9 °F 1022.1 in Calm     94 % 0.0 in 0.00 W/m2 CLR
03:44 13.9 °F 12.9 °F 1022.2 in Calm     94 % 0.0 in 0.00 W/m2 CLR
03:49 13.9 °F 12.9 °F 1022.2 in Calm     94 % 0.0 in 0.00 W/m2 CLR
03:54 13.9 °F 12.9 °F 1022.1 in Calm     94 % 0.0 in 0.00 W/m2 CLR
03:59 13.9 °F 12.9 °F 1022.1 in Calm     94 % 0.0 in 0.00 W/m2 CLR
04:04 13.9 °F 12.9 °F 1022.0 in Calm     94 % 0.0 in 0.00 W/m2 CLR
04:09 13.9 °F 12.9 °F 1022.0 in Calm     94 % 0.0 in 0.00 W/m2 CLR
04:14 13.9 °F 12.9 °F 1021.8 in Calm     94 % 0.0 in 0.00 W/m2 CLR
04:19 13.9 °F 12.9 °F 1021.8 in Calm     94 % 0.0 in 0.00 W/m2 CLR
04:24 13.9 °F 12.9 °F 1021.8 in Calm     94 % 0.0 in 0.00 W/m2 CLR
04:29 13.9 °F 12.9 °F 1021.8 in Calm     94 % 0.0 in 0.00 W/m2 CLR
04:34 13.9 °F 12.9 °F 1021.8 in Calm     94 % 0.0 in 0.00 W/m2 CLR
04:39 13.9 °F 12.9 °F 1021.8 in Calm     94 % 0.0 in 0.00 W/m2 CLR
04:44 13.9 °F 12.9 °F 1021.7 in Calm     94 % 0.0 in 0.00 W/m2 CLR
04:49 13.9 °F 12.9 °F 1021.7 in Calm     94 % 0.0 in 0.00 W/m2 CLR
04:54 13.9 °F 12.9 °F 1021.7 in Calm     94 % 0.0 in 0.00 W/m2 CLR
04:59 13.9 °F 12.9 °F 1021.8 in Calm     94 % 0.0 in 0.00 W/m2 CLR
05:04 13.9 °F 12.9 °F 1021.9 in Calm     94 % 0.0 in 0.00 W/m2 CLR
05:09 13.9 °F 12.9 °F 1021.9 in Calm     94 % 0.0 in 0.00 W/m2 CLR
05:14 13.9 °F 12.9 °F 1022.0 in Calm     94 % 0.0 in 0.00 W/m2 CLR
05:19 13.9 °F 12.9 °F 1022.0 in Calm     94 % 0.0 in 0.00 W/m2 CLR
05:24 13.9 °F 12.9 °F 1022.0 in Calm     94 % 0.0 in 0.00 W/m2 CLR
05:29 13.9 °F 12.9 °F 1022.1 in Calm     94 % 0.0 in 0.00 W/m2 CLR
05:34 13.9 °F 12.9 °F 1022.1 in Calm     94 % 0.0 in 0.00 W/m2 CLR
05:39 13.9 °F 12.9 °F 1022.2 in Calm     94 % 0.0 in 0.00 W/m2 CLR
05:44 13.9 °F 12.9 °F 1022.4 in Calm     94 % 0.0 in 0.00 W/m2 CLR
05:49 13.9 °F 12.9 °F 1022.5 in Calm     94 % 0.0 in 0.00 W/m2 CLR
05:54 14.4 °F 13.5 °F 1022.6 in Calm     94 % 0.0 in 0.00 W/m2 CLR
05:59 14.4 °F 13.5 °F 1022.6 in Calm     94 % 0.0 in 0.00 W/m2 CLR
06:04 14.4 °F 13.5 °F 1022.6 in Calm     94 % 0.0 in 0.00 W/m2 CLR
06:09 14.4 °F 13.5 °F 1022.6 in Calm     94 % 0.0 in 0.00 W/m2 CLR
06:14 14.4 °F 13.5 °F 1022.6 in Calm     94 % 0.0 in 0.00 W/m2 CLR
06:19 14.4 °F 13.5 °F 1022.7 in Calm     94 % 0.0 in 0.00 W/m2 CLR
06:24 14.4 °F 13.5 °F 1022.7 in Calm     94 % 0.0 in 0.00 W/m2 CLR
06:29 14.4 °F 13.5 °F 1022.7 in Calm     94 % 0.0 in 0.00 W/m2 CLR
06:34 14.4 °F 13.5 °F 1022.8 in Calm     94 % 0.0 in 0.00 W/m2 CLR
06:39 14.4 °F 13.5 °F 1022.8 in Calm     94 % 0.0 in 0.00 W/m2 CLR
06:44 14.4 °F 13.5 °F 1022.9 in Calm     94 % 0.0 in 0.00 W/m2 CLR
06:49 14.4 °F 13.5 °F 1022.9 in Calm     94 % 0.0 in 0.00 W/m2 CLR
06:54 14.4 °F 13.5 °F 1022.9 in Calm     94 % 0.0 in 0.00 W/m2 CLR
06:59 14.4 °F 13.5 °F 1023.0 in Calm     94 % 0.0 in 0.00 W/m2 CLR
07:04 14.4 °F 13.5 °F 1023.1 in Calm     94 % 0.0 in 0.00 W/m2 CLR
07:09 14.4 °F 13.5 °F 1023.2 in Calm     94 % 0.0 in 0.00 W/m2 CLR
07:14 14.4 °F 13.5 °F 1023.2 in Calm     94 % 0.0 in 0.00 W/m2 CLR
07:19 14.4 °F 13.5 °F 1023.2 in Calm     94 % 0.0 in 0.00 W/m2 CLR
07:24 14.4 °F 13.5 °F 1023.3 in Calm     94 % 0.0 in 0.00 W/m2 CLR
07:29 14.4 °F 13.5 °F 1023.2 in Calm     94 % 0.0 in 0.00 W/m2 CLR
07:34 14.4 °F 13.5 °F 1023.3 in Calm     94 % 0.0 in 0.00 W/m2 CLR
07:39 14.4 °F 13.5 °F 1023.2 in Calm     94 % 0.0 in 0.00 W/m2 CLR
07:44 14.4 °F 13.5 °F 1023.2 in Calm     94 % 0.0 in 0.00 W/m2 CLR
07:49 14.4 °F 13.5 °F 1023.2 in Calm     94 % 0.0 in 0.00 W/m2 CLR
07:54 14.4 °F 13.5 °F 1023.2 in Calm     94 % 0.0 in 0.00 W/m2 CLR
07:59 14.4 °F 13.5 °F 1023.3 in Calm     94 % 0.0 in 0.00 W/m2 CLR
08:04 14.4 °F 13.5 °F 1023.4 in Calm     94 % 0.0 in 0.00 W/m2 CLR
08:09 14.4 °F 13.5 °F 1023.4 in Calm     94 % 0.0 in 0.00 W/m2 OVC
08:14 14.4 °F 13.5 °F 1023.3 in Calm     94 % 0.0 in 0.00 W/m2 OVC
08:19 14.4 °F 13.5 °F 1023.3 in Calm     94 % 0.0 in 0.00 W/m2 OVC
08:24 14.4 °F 13.5 °F 1023.5 in Calm     94 % 0.0 in 0.00 W/m2 OVC
08:25 14.4 °F 13.5 °F 1023.5 in Calm     94 % 0.0 in 0.00 W/m2 OVC
08:34 14.4 °F 13.5 °F 1023.6 in Calm     94 % 0.0 in 7.00 W/m2 BKN
08:39 14.4 °F 13.5 °F 1023.5 in Calm     94 % 0.0 in 12.00 W/m2 BKN
08:44 14.4 °F 13.5 °F 1023.6 in Calm     94 % 0.0 in 16.00 W/m2 BKN
08:49 14.4 °F 13.5 °F 1023.7 in Calm     94 % 0.0 in 7.00 W/m2 BKN
08:54 14.4 °F 13.5 °F 1023.9 in Calm     94 % 0.0 in 7.00 W/m2 BKN
08:59 14.4 °F 13.5 °F 1023.9 in Calm     94 % 0.0 in 9.00 W/m2 BKN
09:04 14.4 °F 13.5 °F 1024.0 in Calm     94 % 0.0 in 9.00 W/m2 BKN
09:09 14.4 °F 13.5 °F 1024.1 in Calm     94 % 0.0 in 9.00 W/m2 BKN
09:14 14.4 °F 13.5 °F 1024.2 in Calm     94 % 0.0 in 11.00 W/m2 BKN
09:19 14.4 °F 13.5 °F 1024.2 in Calm     94 % 0.0 in 12.00 W/m2 BKN
09:24 15.0 °F 14.1 °F 1024.2 in Calm     94 % 0.0 in 11.00 W/m2 BKN
09:29 15.0 °F 14.1 °F 1024.3 in Calm     94 % 0.0 in 11.00 W/m2 BKN
09:34 15.0 °F 14.1 °F 1024.5 in Calm     94 % 0.0 in 11.00 W/m2 BKN
09:39 15.0 °F 14.1 °F 1024.6 in Calm     94 % 0.0 in 9.00 W/m2 BKN
09:44 15.0 °F 14.1 °F 1024.7 in Calm     94 % 0.0 in 12.00 W/m2 BKN
09:49 15.0 °F 14.1 °F 1024.6 in Calm     94 % 0.0 in 21.00 W/m2 BKN
09:54 15.0 °F 14.1 °F 1024.8 in Calm     94 % 0.0 in 19.00 W/m2 BKN
09:59 15.0 °F 14.1 °F 1024.8 in Calm     94 % 0.0 in 25.00 W/m2 BKN
10:04 15.0 °F 14.1 °F 1024.9 in Calm     94 % 0.0 in 28.00 W/m2 BKN
10:09 15.0 °F 14.1 °F 1025.0 in Calm     94 % 0.0 in 32.00 W/m2 BKN
10:14 15.0 °F 14.1 °F 1025.0 in Calm     94 % 0.0 in 42.00 W/m2 BKN
10:19 15.0 °F 14.1 °F 1025.1 in Calm     94 % 0.0 in 40.00 W/m2 BKN
10:24 15.0 °F 14.1 °F 1025.1 in Calm     94 % 0.0 in 51.00 W/m2 BKN
10:29 15.0 °F 14.1 °F 1025.1 in Calm     94 % 0.0 in 63.00 W/m2 SCT
10:34 15.0 °F 14.1 °F 1025.1 in Calm     94 % 0.0 in 51.00 W/m2 SCT
10:39 15.0 °F 14.1 °F 1025.2 in Calm     94 % 0.0 in 51.00 W/m2 SCT
10:44 15.0 °F 14.1 °F 1025.3 in Calm     94 % 0.0 in 58.00 W/m2 SCT
10:49 15.0 °F 14.1 °F 1025.3 in Calm     94 % 0.0 in 67.00 W/m2 SCT
10:54 15.0 °F 14.1 °F 1025.3 in Calm     94 % 0.0 in 97.00 W/m2 FEW
10:59 15.0 °F 14.1 °F 1025.2 in Calm     94 % 0.0 in 135.00 W/m2 CLR
11:04 15.6 °F 14.6 °F 1025.2 in Calm     94 % 0.0 in 132.00 W/m2 CLR
Lo Temps de Massalio
Compliments of Weather Underground - 768 kb